Location: Grantham
(50.0698°N, 112.0083°W)
Time: 02:17:26
(UTC+00:00)

ISS - Pass Details

Date: 02 December 2021
Orbit: 413 x 422 km, 51.6° (Epoch: 24 January)

Event Time Altitude Azimuth Distance (km) Brightness Sun altitude
Rises 01:19:26 0° 284° (WNW) 2,386 1.2 -17.0°
Reaches altitude 10° 01:21:33 10° 285° (WNW) 1,517 0.0 -17.3°
Maximum altitude 01:24:58 84° 15° (NNE) 431 -3.9 -17.8°
Enters shadow 01:25:36 56° 95° (E) 508 -3.7 -17.9°
